FW2969 Weather Reports


time (UTC)temp
C
wind
direction
speed
KPH
gust
KPH
rain 1hr
cm
rain 24hr
cm
rain mn
cm
humidity
%
barometer
mb
20260903063027 23 317 0.0 4.8 0.00 0.00 0.00 85 1007.8
20260903061527 22 300 0.0 3.2 0.00 0.00 0.00 86 1007.9
20260903060026 22 255 0.0 3.2 0.00 0.00 0.00 88 1007.9
20260903054525 22 305 0.0 4.8 0.00 0.00 0.00 91 1008.0
20260903053024 21 316 0.0 3.2 0.00 0.00 0.00 91 1008.0
20260903051524 21 334 0.0 3.2 0.00 0.00 0.00 91 1008.0
20260903050025 21 38 0.0 1.6 0.00 0.00 0.00 91 1008.1
20260903044523 21 68 0.0 3.2 0.00 0.00 0.00 91 1008.1
20260903043025 20 70 0.0 1.6 0.00 0.00 0.00 91 1008.3
20260903041521 20 70 0.0 1.6 0.00 0.00 0.00 90 1008.3
20260903040020 20 70 0.0 0.0 0.00 0.00 0.00 89 1008.2
20260903034520 20 70 0.0 3.2 0.00 0.00 0.00 88 1008.1
20260903033019 20 28 0.0 1.6 0.00 0.00 0.00 85 1008.0
20260903031519 20 28 0.0 0.0 0.00 0.00 0.00 84 1007.9
20260903030018 20 28 0.0 0.0 0.00 0.00 0.00 82 1007.8
20260903024517 20 28 0.0 0.0 0.00 0.00 0.00 81 1007.6
20260903023016 19 28 0.0 1.6 0.00 0.00 0.00 79 1007.6
20260903021518 19 28 0.0 1.6 0.00 0.00 0.00 78 1007.5
20260903020015 19 27 0.0 0.0 0.00 0.00 0.00 81 1007.4
20260903014514 18 27 0.0 1.6 0.00 0.00 0.00 83 1007.4
20260903013013 18 27 0.0 1.6 0.00 0.00 0.00 87 1007.6
20260903011509 20 28 0.0 1.6 0.00 0.00 0.00 89 1007.6
20260903010005 20 28 0.0 1.6 0.00 0.00 0.00 90 1007.8
20260903004504 21 27 0.0 1.6 0.00 0.00 0.00 89 1008.0
20260903003002 21 29 0.0 0.0 0.00 0.00 0.00 86 1008.1
20260903001606 21 29 0.0 1.6 0.00 0.00 0.00 84 1008.0
20260903000058 22 30 0.0 3.2 0.00 0.00 0.00 79 1008.2
20260902234551 22 37 0.0 3.2 0.00 0.00 0.00 65 1008.1
20260902233049 22 38 0.0 0.0 0.00 0.00 0.00 56 1008.1
20260902231547 22 39 0.0 1.6 0.00 0.00 0.00 54 1007.9
20260902230046 23 38 0.0 0.0 0.00 0.00 0.00 51 1007.8
20260902224547 23 38 0.0 1.6 0.00 0.00 0.00 49 1008.0
20260902223037 24 38 0.0 0.0 0.00 0.00 0.00 47 1008.1
20260902221541 24 44 0.0 0.0 0.00 0.00 0.00 47 1008.1
20260902220045 24 44 0.0 0.0 0.00 0.00 0.00 48 1008.0
20260902214534 24 44 0.0 0.0 0.00 0.00 0.00 49 1008.1
20260902213030 24 44 0.0 1.6 0.00 0.00 0.00 48 1008.4
20260902211528 25 44 0.0 0.0 0.00 0.00 0.00 46 1008.5
20260902210025 25 6 0.0 1.6 0.00 0.00 0.00 44 1008.6
20260902204524 25 51 0.0 1.6 0.00 0.00 0.00 46 1008.6
20260902203024 24 51 0.0 1.6 0.00 0.00 0.00 44 1008.7
20260902201523 25 51 0.0 0.0 0.00 0.00 0.00 43 1008.9
20260902200022 24 51 0.0 1.6 0.00 0.00 0.00 43 1009.0
20260902194522 25 51 0.0 0.0 0.00 0.00 0.00 42 1009.3
20260902193021 25 51 0.0 1.6 0.00 0.00 0.00 44 1009.4
20260902191522 25 51 0.0 0.0 0.00 0.00 0.00 41 1009.4
20260902190031 25 51 0.0 0.0 0.00 0.00 0.00 40 1009.4
20260902184520 25 51 0.0 0.0 0.00 0.00 0.00 39 1009.4
20260902183019 25 50 0.0 0.0 0.00 0.00 0.00 37 1009.4
20260902181519 25 50 0.0 0.0 0.00 0.00 0.00 36 1009.3
20260902180025 25 51 0.0 0.0 0.00 0.00 0.00 40 1009.2
20260902174545 25 352 0.0 0.0 0.00 0.00 0.00 45 1009.1
20260902173047 25 352 0.0 0.0 0.00 0.00 0.00 47 1009.1
20260902171607 25 352 0.0 1.6 0.00 0.00 0.00 45 1009.0
20260902170048 25 351 0.0 0.0 0.00 0.00 0.00 43 1008.9
20260902164545 25 351 0.0 1.6 0.00 0.00 0.00 49 1008.7
20260902163042 25 346 0.0 3.2 0.00 0.00 0.00 56 1008.7
20260902161546 25 343 0.0 1.6 0.00 0.00 0.00 59 1008.5
20260902160043 26 339 0.0 3.2 0.00 0.00 0.00 59 1008.5
20260902154540 26 342 0.0 3.2 0.00 0.00 0.00 61 1008.4
20260902153039 27 8 0.0 4.8 0.00 0.00 0.00 64 1008.3
20260902151538 27 331 0.0 6.4 0.00 0.00 0.00 66 1008.5
20260902150036 27 264 0.0 4.8 0.00 0.00 0.00 70 1008.5
20260902144535 27 305 0.0 8.0 0.00 0.00 0.00 72 1008.6
20260902143034 27 307 1.6 8.0 0.00 0.00 0.00 69 1008.6
20260902141545 28 268 3.2 8.0 0.00 0.00 0.00 66 1008.5
20260902140032 28 313 3.2 11.3 0.00 0.00 0.00 67 1008.6
20260902134534 28 357 4.8 9.7 0.00 0.00 0.00 69 1008.5
20260902133032 27 265 4.8 9.7 0.00 0.00 0.00 70 1008.6
20260902131528 27 303 3.2 9.7 0.00 0.00 0.00 70 1008.6
20260902130029 27 292 3.2 9.7 0.00 0.00 0.00 70 1008.7
20260902124524 27 313 3.2 14.5 0.00 0.00 0.00 70 1008.8
20260902123021 27 297 1.6 9.7 0.00 0.00 0.00 68 1008.9
20260902121520 27 266 3.2 9.7 0.00 0.00 0.00 69 1009.0
20260902120017 27 296 4.8 16.1 0.00 0.00 0.00 68 1009.1
20260902114523 27 267 1.6 12.9 0.00 0.00 0.00 68 1009.4
20260902113018 27 346 3.2 12.9 0.00 0.00 0.00 71 1009.6
20260902111513 27 301 3.2 11.3 0.00 0.00 0.00 70 1009.6
20260902110012 27 301 3.2 12.9 0.00 0.00 0.00 71 1009.7
20260902104513 27 236 3.2 12.9 0.00 0.00 0.00 70 1009.8
20260902103008 27 311 1.6 6.4 0.00 0.00 0.00 73 1009.9
20260902101507 26 320 3.2 14.5 0.00 0.00 0.00 74 1009.8
20260902100007 26 321 3.2 9.7 0.00 0.00 0.00 75 1009.9
20260902094505 26 308 1.6 9.7 0.00 0.00 0.00 74 1010.0
20260902093003 26 303 3.2 11.3 0.00 0.00 0.00 73 1010.2
20260902091508 26 327 1.6 6.4 0.00 0.00 0.00 73 1010.2
20260902090000 26 288 1.6 9.7 0.00 0.00 0.00 73 1010.3
20260902084700 26 294 3.2 8.0 0.00 0.00 0.00 72 1010.3
20260902083058 26 288 0.0 12.9 0.00 0.00 0.00 72 1010.4
20260902081557 26 315 3.2 9.7 0.00 0.00 0.00 69 1010.6
20260902080055 26 320 3.2 8.0 0.00 0.00 0.00 66 1010.7
20260902074608 26 325 0.0 6.4 0.00 0.00 0.00 61 1010.8
20260902073050 26 352 0.0 4.8 0.00 0.00 0.00 59 1010.7
20260902071547 26 332 0.0 4.8 0.00 0.00 0.00 59 1010.6
20260902070046 26 313 0.0 3.2 0.00 0.00 0.00 59 1010.5
20260902064547 26 324 1.6 6.4 0.00 0.00 0.00 57 1010.5